| time (UTC) | temp F | wind direction | speed MPH | gust MPH | rain 1hr in | rain 24hr in | rain mn in | humidity % | barometer mb |
| 20260509051817 | 48 | 60 | 5.0 | 0.0 | 0.00 | 0.00 | 0.00 | 93 | |
| 20260509042031 | 46 | 40 | 5.0 | 0.0 | 0.00 | 0.00 | 0.00 | 93 | |
| 20260509031818 | 45 | 40 | 7.0 | 0.0 | 0.00 | 0.00 | 0.00 | 99 | |
| 20260509021818 | 46 | 20 | 5.0 | 0.0 | 0.00 | 0.00 | 0.00 | 93 | |
| 20260509011920 | 46 | 40 | 5.0 | 0.0 | 0.00 | 0.00 | 0.00 | 87 | |
| 20260509001818 | 48 | 40 | 7.0 | 0.0 | 0.00 | 0.00 | 0.00 | 87 | |
| 20260508231817 | 48 | 30 | 9.0 | 0.0 | 0.00 | 0.00 | 0.00 | 87 | |
| 20260508222030 | 50 | 30 | 9.0 | 0.0 | 0.00 | 0.00 | 0.00 | 76 | |
| 20260508211817 | 50 | 40 | 9.0 | 0.0 | 0.00 | 0.00 | 0.00 | 81 | |
| 20260508201820 | 52 | 30 | 9.0 | 0.0 | 0.00 | 0.00 | 0.00 | 76 | |
| 20260508191919 | 54 | 30 | 9.0 | 0.0 | 0.00 | 0.00 | 0.00 | 66 | |
| 20260508181818 | 57 | 20 | 9.0 | 0.0 | 0.00 | 0.00 | 0.00 | 58 | |
| 20260508171817 | 59 | 30 | 9.0 | 0.0 | 0.00 | 0.00 | 0.00 | 54 | |
| 20260508162031 | 61 | 10 | 5.0 | 0.0 | 0.00 | 0.00 | 0.00 | 55 | |
| 20260508151822 | 61 | 50 | 7.0 | 0.0 | 0.00 | 0.00 | 0.00 | 48 | |
| 20260508141820 | 61 | 70 | 5.0 | 0.0 | 0.00 | 0.00 | 0.00 | 48 | |
| 20260508131917 | 59 | 30 | 7.0 | 0.0 | 0.00 | 0.00 | 0.00 | 51 | |
| 20260508121818 | 57 | 20 | 7.0 | 0.0 | 0.00 | 0.00 | 0.00 | 54 | |
| 20260508111821 | 55 | 40 | 7.0 | 0.0 | 0.00 | 0.00 | 0.00 | 66 | |
| 20260508102031 | 54 | 60 | 7.0 | 0.0 | 0.00 | 0.00 | 0.00 | 71 | |
| 20260508091818 | 54 | 20 | 2.0 | 0.0 | 0.00 | 0.00 | 0.00 | 66 | |
| 20260508081818 | 52 | 50 | 5.0 | 0.0 | 0.00 | 0.00 | 0.00 | 71 | |
| 20260508071921 | 48 | 200 | 5.0 | 0.0 | 0.00 | 0.00 | 0.00 | 87 | |
| 20260508061820 | 46 | 210 | 2.0 | 0.0 | 0.00 | 0.00 | 0.00 | 93 |